Great Bend, KS

5:30 PM CDT on March 25, 2017 (GMT -0500)
Great Bend Municipal

Weather History for KGBD - October, 2013

Change the Weather History Date:

Tuesday, October 1, 2013

  Actual Average Record
Temperature  
Mean Temperature 68 °F -  
Max Temperature 84 °F 82 °F 95 °F (2006)
Min Temperature 51 °F 53 °F 29 °F (1985)
Cooling Degree Days 2    
Growing Degree Days 18 (Base 50)    
Moisture  
Dew Point 54 °F    
Average Humidity 64    
Maximum Humidity 82    
Minimum Humidity 37    
Precipitation  
Precipitation 0.00 in - - ()
Sea Level Pressure  
Sea Level Pressure 29.87 in    
Wind  
Wind Speed 10 mph (SSE)    
Max Wind Speed 17 mph    
Max Gust Speed 24 mph    
Visibility 10 miles    
Events      
Averages and records for this station are not official NWS values.
T = Trace of Precipitation, MM = Missing Value Source: NWS Daily Summary

Daily Weather History Graph

Daily Weather History Graph

Search for Another Location

Airport or City:

Trip Planner

Search our weather history database for the weather conditions in past years. The results will help you decide how hot, cold, wet, or windy it might be!

Date:

Astronomy

Oct. 01, 2013 Rise Set
Actual Time 7:31 AM CDT 7:17 PM CDT
Civil Twilight 7:05 AM CDT 7:44 PM CDT
Nautical Twilight 6:34 AM CDT 8:14 PM CDT
Astronomical Twilight 6:03 AM CDT 8:45 PM CDT
Moon 4:09 AM CDT (10/1) 5:20 PM CDT (10/1)
Length of Visible Light 12h 39m
Length of Day
11h 46m
Waning Crescent, 12% of the Moon is Illuminated
Oct 1
Waning Crescent
Oct 4
New
Oct 11
First Quarter
Oct 18
Full
Oct 26
Last Quarter

Hourly Weather History & Observations

Time (CDT) Temp. Heat Index Dew Point Humidity Pressure Visibility Wind Dir Wind Speed Gust Speed Precip Events Conditions
12:15 AM 62.6 °F - 51.8 °F 68% 29.81 in 10.0 mi South 15.0 mph - N/A   Unknown
12:35 AM 62.6 °F - 51.8 °F 68% 29.80 in 10.0 mi South 13.8 mph - N/A   Unknown
12:55 AM 62.6 °F - 51.8 °F 68% 29.80 in 10.0 mi South 13.8 mph - N/A   Unknown
1:15 AM 62.6 °F - 51.8 °F 68% 29.80 in 10.0 mi South 11.5 mph - N/A   Unknown
1:35 AM 62.6 °F - 51.8 °F 68% 29.81 in 10.0 mi South 11.5 mph - N/A   Unknown
1:55 AM 62.6 °F - 51.8 °F 68% 29.81 in 10.0 mi South 11.5 mph - N/A   Unknown
2:15 AM 60.8 °F - 51.8 °F 72% 29.81 in 10.0 mi South 11.5 mph - N/A   Unknown
2:35 AM 60.8 °F - 51.8 °F 72% 29.81 in 10.0 mi South 8.1 mph - N/A   Unknown
2:55 AM 59.0 °F - 51.8 °F 77% 29.82 in 10.0 mi South 6.9 mph - N/A   Unknown
3:15 AM 57.2 °F - 50.0 °F 77% 29.82 in 10.0 mi South 4.6 mph - N/A   Unknown
3:35 AM 57.2 °F - 50.0 °F 77% 29.81 in 10.0 mi South 6.9 mph - N/A   Unknown
3:55 AM 55.4 °F - 48.2 °F 77% 29.81 in 10.0 mi South 8.1 mph - N/A   Unknown
4:15 AM 55.4 °F - 48.2 °F 77% 29.81 in 10.0 mi South 5.8 mph - N/A   Unknown
4:35 AM 57.2 °F - 50.0 °F 77% 29.81 in 10.0 mi South 6.9 mph - N/A   Unknown
4:55 AM 55.4 °F - 48.2 °F 77% 29.82 in 10.0 mi South 8.1 mph - N/A   Unknown
5:15 AM 55.4 °F - 48.2 °F 77% 29.82 in 10.0 mi South 6.9 mph - N/A   Unknown
5:35 AM 53.6 °F - 48.2 °F 82% 29.83 in 10.0 mi South 5.8 mph - N/A   Unknown
5:55 AM 55.4 °F - 48.2 °F 77% 29.83 in 10.0 mi South 5.8 mph - N/A   Unknown
6:15 AM 55.4 °F - 48.2 °F 77% 29.83 in 10.0 mi South 8.1 mph - N/A   Unknown
6:35 AM 53.6 °F - 48.2 °F 82% 29.84 in 10.0 mi South 5.8 mph - N/A   Unknown
6:55 AM 53.6 °F - 46.4 °F 77% 29.85 in 10.0 mi Calm Calm - N/A   Unknown
7:15 AM 53.6 °F - 46.4 °F 77% 29.85 in 10.0 mi SSE 6.9 mph - N/A   Unknown
7:35 AM 53.6 °F - 48.2 °F 82% 29.86 in 10.0 mi SSE 5.8 mph - N/A   Unknown
7:55 AM 51.8 °F - 46.4 °F 82% 29.88 in 10.0 mi Calm Calm - N/A   Unknown
8:15 AM 53.6 °F - 48.2 °F 82% 29.88 in 10.0 mi Calm Calm - N/A   Unknown
8:35 AM 57.2 °F - 50.0 °F 77% 29.89 in 10.0 mi SE 3.5 mph - N/A   Unknown
8:55 AM 57.2 °F - 51.8 °F 82% 29.91 in 10.0 mi North 4.6 mph - N/A   Unknown
9:15 AM 60.8 °F - 51.8 °F 72% 29.91 in 10.0 mi Calm Calm - N/A   Unknown
9:35 AM 60.8 °F - 51.8 °F 72% 29.92 in 10.0 mi Calm Calm - N/A   Unknown
9:55 AM 62.6 °F - 51.8 °F 68% 29.92 in 10.0 mi Calm Calm - N/A   Unknown
10:15 AM 64.4 °F - 53.6 °F 68% 29.93 in 10.0 mi North - - N/A   Unknown
10:35 AM 66.2 °F - 53.6 °F 64% 29.93 in 10.0 mi North - - N/A   Unknown
10:55 AM 68.0 °F - 53.6 °F 60% 29.94 in 10.0 mi North - - N/A   Unknown
11:15 AM 69.8 °F - 53.6 °F 56% 29.93 in 10.0 mi North - - N/A   Unknown
11:35 AM 69.8 °F - 53.6 °F 56% 29.93 in 10.0 mi Calm Calm - N/A   Unknown
11:55 AM 73.4 °F - 53.6 °F 50% 29.93 in 10.0 mi ESE 4.6 mph - N/A   Unknown
12:15 PM 73.4 °F - 55.4 °F 53% 29.93 in 10.0 mi SE 10.4 mph - N/A   Unknown
12:35 PM 75.2 °F - 55.4 °F 50% 29.92 in 10.0 mi ESE 6.9 mph - N/A   Unknown
12:55 PM 77.0 °F - 55.4 °F 47% 29.92 in 10.0 mi ESE 9.2 mph - N/A   Unknown
1:15 PM 78.8 °F - 55.4 °F 44% 29.91 in 10.0 mi SE 5.8 mph - N/A   Unknown
1:35 PM 78.8 °F - 55.4 °F 44% 29.91 in 10.0 mi SE 10.4 mph - N/A   Unknown
1:55 PM 80.6 °F 80.5 °F 55.4 °F 42% 29.90 in 10.0 mi ESE 10.4 mph - N/A   Unknown
2:15 PM 80.6 °F 80.5 °F 55.4 °F 42% 29.90 in 10.0 mi ESE 6.9 mph - N/A   Unknown
2:35 PM 80.6 °F 80.5 °F 55.4 °F 42% 29.89 in 10.0 mi ESE 9.2 mph 16.1 mph N/A   Unknown
2:55 PM 82.4 °F 81.7 °F 55.4 °F 39% 29.88 in 10.0 mi ESE 11.5 mph 16.1 mph N/A   Unknown
3:15 PM 82.4 °F 81.7 °F 55.4 °F 39% 29.88 in 10.0 mi SSE 9.2 mph 18.4 mph N/A   Unknown
3:35 PM 84.2 °F 83.0 °F 55.4 °F 37% 29.87 in 10.0 mi South 13.8 mph 17.3 mph N/A   Unknown
3:55 PM 84.2 °F 83.0 °F 55.4 °F 37% 29.87 in 10.0 mi SE 16.1 mph - N/A   Unknown
4:15 PM 84.2 °F 83.5 °F 57.2 °F 40% 29.87 in 10.0 mi SE 15.0 mph 24.2 mph N/A   Unknown
4:35 PM 84.2 °F 83.5 °F 57.2 °F 40% 29.87 in 10.0 mi SE 13.8 mph - N/A   Unknown
4:55 PM 84.2 °F 83.5 °F 57.2 °F 40% 29.87 in 10.0 mi SSE 17.3 mph - N/A   Unknown
5:15 PM 84.2 °F 83.5 °F 57.2 °F 40% 29.87 in 10.0 mi South 15.0 mph - N/A   Unknown
5:35 PM 84.2 °F 83.5 °F 57.2 °F 40% 29.87 in 10.0 mi SSE 16.1 mph - N/A   Unknown
5:55 PM 82.4 °F 82.0 °F 57.2 °F 42% 29.87 in 10.0 mi SSE 16.1 mph - N/A   Unknown
6:15 PM 82.4 °F 82.5 °F 59.0 °F 45% 29.87 in 10.0 mi SSE 13.8 mph - N/A   Unknown
6:35 PM 80.6 °F 81.1 °F 59.0 °F 48% 29.87 in 10.0 mi SSE 13.8 mph - N/A   Unknown
6:55 PM 80.6 °F 81.5 °F 60.8 °F 51% 29.87 in 10.0 mi SSE 11.5 mph - N/A   Unknown
7:15 PM 77.0 °F - 60.8 °F 57% 29.88 in 10.0 mi SSE 10.4 mph - N/A   Unknown
7:35 PM 75.2 °F - 60.8 °F 61% 29.89 in 10.0 mi SE 8.1 mph - N/A   Unknown
7:55 PM 71.6 °F - 60.8 °F 69% 29.89 in 10.0 mi SE 8.1 mph - N/A   Unknown
8:15 PM 71.6 °F - 60.8 °F 69% 29.90 in 10.0 mi SE 8.1 mph - N/A   Unknown
8:35 PM 71.6 °F - 60.8 °F 69% 29.90 in 10.0 mi SE 9.2 mph - N/A   Unknown
8:55 PM 69.8 °F - 60.8 °F 73% 29.90 in 10.0 mi SE 8.1 mph - N/A   Unknown
9:15 PM 69.8 °F - 60.8 °F 73% 29.91 in 10.0 mi SE 9.2 mph - N/A   Unknown
9:35 PM 69.8 °F - 60.8 °F 73% 29.91 in 10.0 mi SE 10.4 mph - N/A   Unknown
9:55 PM 69.8 °F - 60.8 °F 73% 29.91 in 10.0 mi SE 10.4 mph - N/A   Unknown
10:15 PM 69.8 °F - 60.8 °F 73% 29.91 in 10.0 mi SE 11.5 mph - N/A   Unknown
10:35 PM 69.8 °F - 60.8 °F 73% 29.92 in 10.0 mi SE 10.4 mph - N/A   Unknown
10:55 PM 69.8 °F - 60.8 °F 73% 29.92 in 10.0 mi SE 10.4 mph - N/A   Unknown
11:15 PM 68.0 °F - 60.8 °F 78% 29.92 in 10.0 mi SE 10.4 mph - N/A   Unknown
11:35 PM 68.0 °F - 60.8 °F 78% 29.92 in 10.0 mi SE 10.4 mph - N/A   Unknown
11:55 PM 68.0 °F - 60.8 °F 78% 29.92 in 10.0 mi SE 10.4 mph - N/A   Unknown